Date String (YYYY-MM-DD hh:mm:ss) UTC,Instrument flags,Ambient pressure (hPa),Sample flow (lpm),Bypass flow (lpm),Sample temperature (°C),Ambient temperature (°C),ASC tube jacket temperature (°C),LED temperature (°C),Box temperature (°C),Sample RH (%),Span deviation,Mass concentration (μg/m³),Mass concentration (μg/m³),Mass concentration (μg/m³)
DateTimeUTC,F1_M11,P_M11,Q1_M11,Q2_M11,T1_M11,T2_M11,T3_M11,T4_M11,T5_M11,U1_M11,ZSPAN_M11,X0_M11,X2_M11,X1_M11
2022-03-31 13:00:00,,0818.8,4.99,0.00,22.6,21.8,00.0,31.6,24.3,07.9,0000.0,0006.47,0003.17,0001.53
2022-03-31 13:01:00,,0818.7,5.02,0.00,22.6,21.8,00.0,31.6,24.3,07.9,0000.0,0006.62,0003.19,0001.55
2022-03-31 13:02:00,,0818.8,5.00,0.00,22.6,21.8,00.0,31.6,24.3,07.9,0000.0,0006.79,0003.22,0001.56
2022-03-31 13:03:00,,0818.8,5.00,0.00,22.6,21.7,00.0,31.6,24.3,07.9,0000.0,0006.81,0003.22,0001.56
2022-03-31 13:04:00,,0818.7,5.00,0.00,22.5,21.7,00.0,31.6,24.2,08.3,0000.0,0006.72,0003.20,0001.55
2022-03-31 13:05:00,,0818.8,4.99,0.00,22.5,21.6,00.0,31.6,24.2,08.2,0000.0,0006.79,0003.22,0001.55
2022-03-31 13:06:00,,0818.8,5.00,0.00,22.5,21.6,00.0,31.6,24.2,08.1,0000.0,0006.63,0003.18,0001.54
2022-03-31 13:07:00,,0818.8,5.00,0.00,22.5,21.6,00.0,31.6,24.2,08.0,0000.0,0006.56,0003.17,0001.52
2022-03-31 13:08:00,,0818.7,5.00,0.00,22.5,21.6,00.0,31.5,24.2,07.9,0000.0,0006.69,0003.17,0001.52
2022-03-31 13:09:00,,0818.8,5.00,0.00,22.4,21.6,00.0,31.5,24.2,07.8,0000.0,0006.69,0003.17,0001.51
2022-03-31 13:10:00,,0818.8,5.00,0.00,22.4,21.6,00.0,31.5,24.2,07.8,0000.0,0006.45,0003.11,0001.49
2022-03-31 13:11:00,,0818.8,5.01,0.00,22.4,21.5,00.0,31.5,24.2,07.8,0000.0,0006.73,0003.16,0001.48
2022-03-31 13:12:00,,0818.8,4.99,0.00,22.4,21.5,00.0,31.5,24.2,07.8,0000.0,0006.66,0003.14,0001.46
2022-03-31 13:13:00,,0818.8,5.00,0.00,22.4,21.5,00.0,31.5,24.2,08.1,0000.0,0006.42,0003.10,0001.45
2022-03-31 13:14:00,,0818.8,5.00,0.00,22.4,21.5,00.0,31.5,24.1,07.8,0000.0,0006.21,0003.02,0001.45
2022-03-31 13:15:00,,0818.8,5.00,0.00,22.4,21.5,00.0,31.5,24.1,07.8,0000.0,0006.21,0003.03,0001.46
2022-03-31 13:16:00,,0818.7,4.99,0.00,22.4,21.8,00.0,31.5,24.2,07.8,0000.0,0006.13,0003.00,0001.46
2022-03-31 13:17:00,,0818.7,5.02,0.00,22.6,22.8,00.0,31.5,24.5,07.7,0000.0,0006.38,0003.06,0001.45
2022-03-31 13:18:00,,0818.8,4.99,0.00,22.7,23.7,00.0,31.6,24.8,07.6,0000.0,0006.73,0003.12,0001.44
2022-03-31 13:19:00,,0818.8,5.00,0.00,22.8,23.7,00.0,31.6,24.9,07.5,0000.0,0006.60,0003.03,0001.43
2022-03-31 13:20:00,,0818.8,5.00,0.00,22.9,23.4,00.0,31.6,24.8,07.4,0000.0,0006.48,0003.01,0001.41
2022-03-31 13:21:00,,0818.8,4.99,0.00,22.9,23.1,00.0,31.7,24.8,07.3,0000.0,0006.54,0002.99,0001.40
2022-03-31 13:22:00,,0818.8,5.01,0.00,22.8,22.8,00.0,31.7,24.7,07.3,0000.0,0006.80,0002.88,0001.38
2022-03-31 13:23:00,,0818.8,5.00,0.00,22.8,22.6,00.0,31.7,24.7,07.3,0000.0,0006.85,0002.88,0001.38
2022-03-31 13:24:00,,0818.8,5.00,0.00,22.8,22.4,00.0,31.7,24.6,07.4,0000.0,0007.00,0002.94,0001.38
2022-03-31 13:25:00,,0818.8,5.01,0.00,22.8,22.3,00.0,31.7,24.6,07.4,0000.0,0007.02,0002.95,0001.38
2022-03-31 13:26:00,,0818.8,5.00,0.00,22.8,22.2,00.0,31.7,24.6,07.4,0000.0,0007.05,0002.97,0001.37
2022-03-31 13:27:00,,0818.8,5.00,0.00,22.8,22.1,00.0,31.7,24.6,07.4,0000.0,0007.10,0002.99,0001.37
2022-03-31 13:28:00,,0818.8,5.01,0.00,22.8,22.1,00.0,31.7,24.5,07.3,0000.0,0007.32,0003.09,0001.39
2022-03-31 13:29:00,,0818.9,4.99,0.00,22.7,22.0,00.0,31.7,24.5,07.4,0000.0,0007.08,0003.05,0001.41
2022-03-31 13:30:00,,0818.9,5.00,0.00,22.7,22.0,00.0,31.7,24.5,07.4,0000.0,0006.78,0003.03,0001.41
2022-03-31 13:31:00,,0818.9,5.01,0.00,22.7,22.0,00.0,31.7,24.5,07.4,0000.0,0006.76,0003.02,0001.42
2022-03-31 13:32:00,,0818.9,5.00,0.00,22.7,21.9,00.0,31.7,24.5,07.4,0000.0,0006.92,0003.09,0001.45
2022-03-31 13:33:00,,0818.9,5.00,0.00,22.7,21.9,00.0,31.7,24.5,07.7,0000.0,0006.24,0003.07,0001.46
2022-03-31 13:34:00,,0818.9,4.98,0.00,22.7,21.9,00.0,31.7,24.5,07.7,0000.0,0006.73,0003.04,0001.45
2022-03-31 13:35:00,,0818.9,5.00,0.00,22.7,21.9,00.0,31.7,24.5,07.5,0000.0,0006.77,0003.02,0001.45
2022-03-31 13:36:00,,0819.0,4.99,0.00,22.7,21.9,00.0,31.7,24.5,07.4,0000.0,0006.86,0003.03,0001.43
2022-03-31 13:37:00,,0818.9,5.00,0.00,22.7,21.9,00.0,31.7,24.5,07.4,0000.0,0006.98,0003.02,0001.41
2022-03-31 13:38:00,,0819.0,5.00,0.00,22.7,21.8,00.0,31.7,24.5,07.3,0000.0,0007.39,0003.03,0001.40
2022-03-31 13:39:00,,0819.0,5.01,0.00,22.7,21.8,00.0,31.7,24.5,07.2,0000.0,0007.37,0002.94,0001.38
2022-03-31 13:40:00,,0819.0,4.99,0.00,22.7,21.8,00.0,31.7,24.4,07.2,0000.0,0007.34,0002.91,0001.36
2022-03-31 13:41:00,,0819.0,4.99,0.00,22.7,21.8,00.0,31.7,24.4,07.3,0000.0,0007.29,0002.88,0001.32
2022-03-31 13:42:00,,0819.0,5.01,0.00,22.7,21.8,00.0,31.7,24.4,07.2,0000.0,0007.20,0002.83,0001.31
2022-03-31 13:43:00,,0819.0,4.99,0.00,22.7,21.8,00.0,31.7,24.4,07.2,0000.0,0007.00,0002.76,0001.27
2022-03-31 13:44:00,,0818.9,4.99,0.00,22.7,21.8,00.0,31.6,24.4,07.1,0000.0,0006.89,0002.73,0001.24
2022-03-31 13:45:00,,0818.9,5.00,0.00,22.7,21.8,00.0,31.6,24.4,07.1,0000.0,0006.72,0002.77,0001.24
2022-03-31 13:46:00,,0818.9,4.99,0.00,22.7,21.8,00.0,31.6,24.4,07.1,0000.0,0006.38,0002.70,0001.23
2022-03-31 13:47:00,,0819.0,5.00,0.00,22.7,21.8,00.0,31.6,24.4,07.1,0000.0,0006.47,0002.72,0001.24
2022-03-31 13:48:00,,0819.0,5.00,0.00,22.7,21.8,00.0,31.6,24.4,07.1,0000.0,0006.79,0002.72,0001.24
2022-03-31 13:49:00,,0819.0,5.00,0.00,22.7,21.8,00.0,31.6,24.4,07.1,0000.0,0006.97,0002.75,0001.25
2022-03-31 13:50:00,,0819.0,5.00,0.00,22.7,21.8,00.0,31.6,24.4,07.1,0000.0,0006.71,0002.72,0001.25
2022-03-31 13:51:00,,0818.9,5.00,0.00,22.7,21.8,00.0,31.6,24.4,08.7,0000.0,0006.43,0002.64,0001.24
2022-03-31 13:52:00,,0819.0,4.99,0.00,22.7,21.9,00.0,31.6,24.5,10.9,0000.0,0006.41,0002.61,0001.24
2022-03-31 13:53:00,,0818.9,5.00,0.00,22.7,21.9,00.0,31.6,24.5,11.2,0000.0,0006.79,0002.70,0001.25
2022-03-31 13:54:00,,0819.0,5.01,0.00,22.7,21.9,00.0,31.6,24.5,11.4,0000.0,0006.94,0002.68,0001.25
2022-03-31 13:55:00,,0818.9,5.01,0.00,22.7,21.9,00.0,31.6,24.5,09.4,0000.0,0007.10,0002.68,0001.25
2022-03-31 13:56:00,,0818.9,5.00,0.00,22.7,21.9,00.0,31.6,24.5,07.9,0000.0,0007.16,0002.69,0001.25
2022-03-31 13:57:00,,0819.0,5.00,0.00,22.7,21.9,00.0,31.7,24.5,08.0,0000.0,0007.22,0002.70,0001.24
2022-03-31 13:58:00,,0819.0,5.00,0.00,22.7,21.9,00.0,31.7,24.5,08.0,0000.0,0007.28,0002.74,0001.23
2022-03-31 13:59:00,,0819.0,5.00,0.00,22.7,21.9,00.0,31.7,24.5,08.0,0000.0,0006.86,0002.65,0001.23
